Location: Drummondville
(45.8830°N, 72.4830°W)
Time: 02:35:52
(UTC-04:00)

Vanguard 1 - All Passes

Search period start: 23 June 2018 00:00
Search period end: 03 July 2018 00:00
Orbit: 650 x 3833 km, 34.3° (Epoch: 22 June)

Date Brightness Start Highest point End Pass type
(mag) Time Alt. Az. Time Alt. Az. Time Alt. Az.
23 Jun - 04:10:42 10° SE 04:13:25 11° SE 04:16:31 10° ESE visible
23 Jun - 06:23:14 10° SW 06:32:11 39° SSE 06:47:23 10° E daylight
23 Jun - 08:41:41 10° WSW 08:54:07 55° S 09:14:42 10° ESE daylight
23 Jun - 11:02:27 10° W 11:18:09 48° SSW 11:39:39 10° SE daylight
23 Jun - 13:26:34 10° W 13:41:56 27° SW 13:58:56 10° S daylight
24 Jun - 04:28:19 10° S 04:33:26 17° SE 04:40:19 10° E daylight
24 Jun - 06:43:30 10° SW 06:52:47 44° SSE 07:08:56 10° E daylight
24 Jun - 09:02:27 10° WSW 09:15:08 55° S 09:35:53 10° ESE daylight
24 Jun - 11:23:36 10° W 11:39:09 43° SSW 11:59:55 10° SE daylight
24 Jun - 13:49:11 10° W 14:02:32 21° SW 14:17:02 10° S daylight
25 Jun - 04:47:26 10° S 04:53:34 22° SE 05:02:41 10° E daylight
25 Jun - 07:03:55 10° SW 07:13:31 48° SSE 07:30:23 10° E daylight
25 Jun - 09:23:17 10° WSW 09:36:12 52° S 09:56:55 10° ESE daylight
25 Jun - 11:44:54 10° W 12:00:06 37° SSW 12:19:50 10° SSE daylight
25 Jun - 14:13:11 10° WSW 14:23:04 15° SW 14:33:33 10° SSW daylight
26 Jun - 05:07:06 10° SSW 05:13:51 28° SE 05:24:33 10° E daylight
26 Jun - 07:24:28 10° WSW 07:34:20 50° S 07:51:47 10° ESE daylight
26 Jun - 09:44:10 10° W 09:57:15 49° SSW 10:17:45 10° SE daylight
26 Jun - 12:06:27 10° W 12:20:59 31° SSW 12:39:17 10° SSE daylight
27 Jun - 05:27:07 10° SSW 05:34:16 34° SSE 05:46:12 10° E daylight
27 Jun - 07:45:07 10° WSW 07:55:13 51° S 08:13:04 10° ESE daylight
27 Jun - 10:05:09 10° W 10:18:17 44° SSW 10:38:20 10° SE daylight
27 Jun - 12:28:25 10° W 12:41:47 25° SW 12:58:05 10° S daylight
28 Jun - 03:33:06 10° SSE 03:36:01 12° SE 03:39:28 10° ESE visible
28 Jun - 05:47:23 10° SW 05:54:49 39° SSE 06:07:41 10° E daylight
28 Jun - 08:05:50 10° WSW 08:16:10 50° S 08:34:15 10° ESE daylight
28 Jun - 10:26:15 10° W 10:39:18 39° SSW 10:58:35 10° SE daylight
28 Jun - 12:51:07 10° WSW 13:02:33 19° SW 13:15:55 10° S daylight
29 Jun - 03:51:45 10° S 03:56:11 18° SE 04:02:13 10° ESE visible
29 Jun - 06:07:47 10° SW 06:15:29 43° SSE 06:29:05 10° E daylight
29 Jun - 08:26:38 10° WSW 08:37:09 48° S 08:55:16 10° ESE daylight
29 Jun - 10:47:32 10° W 11:00:17 34° SSW 11:18:27 10° SSE daylight
29 Jun - 13:15:32 10° WSW 13:23:16 13° SW 13:31:48 10° SSW daylight
30 Jun - 04:11:18 10° SSW 04:16:28 23° SE 04:24:08 10° E visible
30 Jun - 06:28:17 10° WSW 06:36:14 45° S 06:50:25 10° ESE daylight
30 Jun - 08:47:29 10° W 08:58:09 44° SSW 09:16:04 10° SE daylight
30 Jun - 11:09:07 10° W 11:21:14 28° SSW 11:37:46 10° SSE daylight
01 Jul - 04:31:16 10° SSW 04:36:53 28° SSE 04:45:43 10° E daylight
01 Jul - 06:48:55 10° WSW 06:57:04 46° S 07:11:39 10° ESE daylight
01 Jul - 09:08:26 10° W 09:19:09 40° SSW 09:36:37 10° SE daylight
01 Jul - 11:31:09 10° WSW 11:42:09 22° SW 11:56:23 10° S daylight
02 Jul - 04:51:29 10° SW 04:57:25 33° SSE 05:07:08 10° E daylight
02 Jul - 07:09:36 10° WSW 07:17:56 45° S 07:32:45 10° ESE daylight
02 Jul - 09:29:33 10° W 09:40:10 35° SSW 09:56:48 10° SE daylight
02 Jul - 11:54:08 10° WSW 12:03:02 16° SW 12:13:48 10° S daylight
